This demonstration page uses our WeatherBlox Daily Observations layout. Learn more.

Left ArrowRight Arrow

Hourly Observations for November 28, 2019

Temp ( °F °C ) Dew Point ( °F °C ) Humidity (%) Winds ( mph kmh ) Pressure ( in mb ) Visibility ( mi km ) Precip ( " mm )
12:15 am 00:15 Clear 50 10 32 0 50 50 WNW 16 26 29.86 1011 10 16.0934 0 0
12:35 am 00:35 Clear 50 10 32 0 50 50 NW 29 46 29.86 1011 10 16.0934 0 0
12:55 am 00:55 Mostly Cloudy 48 9 30 -1 50 50 WNW 30 48 29.87 1011 10 16.0934 0 0
1:15 am 01:15 Cloudy 48 9 30 -1 50 50 WNW 33 54 29.89 1012 10 16.0934 0 0
1:35 am 01:35 Cloudy 48 9 30 -1 50 50 WNW 32 52 29.89 1012 10 16.0934 0 0
1:55 am 01:55 Cloudy 48 9 30 -1 50 50 NW 23 37 29.9 1012 10 16.0934 0 0
2:15 am 02:15 Cloudy 48 9 32 0 54 54 NW 25 41 29.91 1013 10 16.0934 0 0
2:35 am 02:35 Cloudy 46 8 32 0 57 57 NW 20 31 29.93 1014 10 16.0934 0 0
2:55 am 02:55 Cloudy 46 8 30 -1 53 53 NW 40 65 29.94 1014 10 16.0934 0 0
3:15 am 03:15 Cloudy 46 8 30 -1 53 53 NNW 33 54 29.95 1014 10 16.0934 0 0
3:35 am 03:35 Cloudy 46 8 30 -1 53 53 NNW 25 41 29.95 1014 10 16.0934 0 0
3:55 am 03:55 Partly Cloudy 45 7 32 0 61 61 NW 36 57 29.94 1014 10 16.0934 0 0
4:15 am 04:15 Partly Cloudy 45 7 32 0 61 61 NW 28 44 29.95 1014 10 16.0934 0 0
4:35 am 04:35 Partly Cloudy N/A N/A N/A NW 29 46 N/A 10 16.0934 0 0
4:55 am 04:55 Mostly Cloudy N/A N/A N/A NW 18 30 N/A 10 16.0934 0 0
5:15 am 05:15 Partly Cloudy 43 6 32 0 66 66 NW 25 41 29.95 1014 10 16.0934 0 0
5:35 am 05:35 Clear N/A N/A N/A NW 30 48 N/A 10 16.0934 0 0
5:55 am 05:55 Clear 43 6 32 0 66 66 NNW 24 39 29.97 1015 10 16.0934 0 0
6:15 am 06:15 Clear 43 6 32 0 66 66 NW 25 41 30 1016 10 16.0934 0 0
6:35 am 06:35 Partly Cloudy 43 6 32 0 66 66 NNW 15 24 30.04 1017 10 16.0934 0 0
6:55 am 06:55 Cloudy 43 6 32 0 66 66 NNW 6 9 30.04 1017 10 16.0934 0 0
7:15 am 07:15 Cloudy 43 6 32 0 66 66 NNW 13 20 30.05 1018 10 16.0934 0 0
7:35 am 07:35 Cloudy 43 6 32 0 66 66 NNW 16 26 30.06 1018 10 16.0934 0 0
7:55 am 07:55 Cloudy 43 6 32 0 66 66 NW 16 26 30.07 1018 10 16.0934 0 0
8:15 am 08:15 Cloudy 43 6 32 0 66 66 NW 15 24 30.08 1019 10 16.0934 0 0
8:35 am 08:35 Cloudy 45 7 32 0 61 61 NNW 13 20 30.09 1019 10 16.0934 0 0
8:55 am 08:55 Cloudy 45 7 32 0 61 61 NNW 14 22 30.1 1019 10 16.0934 0 0
9:15 am 09:15 Cloudy 45 7 32 0 61 61 NNW 25 41 30.1 1019 10 16.0934 0 0
9:35 am 09:35 Cloudy 45 7 32 0 61 61 NW 21 33 30.11 1020 10 16.0934 0 0
9:55 am 09:55 Cloudy 45 7 32 0 61 61 NNW 26 43 30.1 1019 10 16.0934 0 0
10:15 am 10:15 Cloudy 45 7 32 0 61 61 NNW 20 31 30.12 1020 10 16.0934 0 0
10:35 am 10:35 Cloudy 45 7 32 0 61 61 NNW 17 28 30.13 1020 10 16.0934 0 0
10:55 am 10:55 Cloudy 45 7 32 0 61 61 NNW 23 37 30.14 1021 10 16.0934 0 0
11:15 am 11:15 Cloudy 45 7 32 0 61 61 NW 23 37 30.14 1021 10 16.0934 0 0
11:35 am 11:35 Cloudy 45 7 32 0 61 61 NW 24 39 30.13 1020 10 16.0934 0 0
11:55 am 11:55 Cloudy 45 7 32 0 61 61 WNW 22 35 30.14 1021 10 16.0934 0 0
12:15 pm 12:15 Cloudy 45 7 32 0 61 61 NW 25 41 30.13 1020 10 16.0934 0 0
12:35 pm 12:35 Cloudy 45 7 32 0 61 61 NW 29 46 30.14 1021 10 16.0934 0 0
12:55 pm 12:55 Cloudy 45 7 32 0 61 61 NW 18 30 30.15 1021 10 16.0934 0 0
1:15 pm 13:15 Cloudy 45 7 32 0 61 61 NW 25 41 30.15 1021 10 16.0934 0 0
1:35 pm 13:35 Cloudy 45 7 32 0 61 61 NW 17 28 30.15 1021 10 16.0934 0 0
1:55 pm 13:55 Cloudy 45 7 32 0 61 61 NW 22 35 30.14 1021 10 16.0934 0 0
2:15 pm 14:15 Cloudy 45 7 32 0 61 61 NW 22 35 30.14 1021 10 16.0934 0 0
2:35 pm 14:35 Cloudy 45 7 32 0 61 61 NW 21 33 30.16 1021 10 16.0934 0 0
2:55 pm 14:55 Cloudy 45 7 32 0 61 61 NW 10 17 30.17 1022 10 16.0934 0 0
3:15 pm 15:15 Cloudy 45 7 32 0 61 61 NW 17 28 30.19 1022 10 16.0934 0 0
3:35 pm 15:35 Cloudy 45 7 32 0 61 61 NW 15 24 30.2 1023 10 16.0934 0 0
3:55 pm 15:55 Cloudy 45 7 32 0 61 61 NNW 15 24 30.21 1023 10 16.0934 0 0
4:15 pm 16:15 Cloudy 45 7 32 0 61 61 NW 17 28 30.21 1023 10 16.0934 0 0
4:35 pm 16:35 Mostly Cloudy 45 7 32 0 61 61 NNW 12 19 30.22 1023 10 16.0934 0 0
4:55 pm 16:55 Cloudy 43 6 32 0 66 66 NW 13 20 30.22 1023 10 16.0934 0 0
5:15 pm 17:15 Mostly Cloudy 43 6 32 0 66 66 NW 23 37 30.21 1023 10 16.0934 0 0
5:35 pm 17:35 Clear 43 6 32 0 66 66 NW 14 22 30.23 1024 10 16.0934 0 0
5:55 pm 17:55 Clear 43 6 32 0 66 66 NNW 15 24 30.25 1024 10 16.0934 0 0
6:35 pm 18:35 Mostly Cloudy 43 6 32 0 66 66 NW 17 28 30.27 1025 10 16.0934 0 0
6:55 pm 18:55 Mostly Cloudy 43 6 32 0 66 66 NW 13 20 30.27 1025 10 16.0934 0 0
7:15 pm 19:15 Mostly Cloudy 43 6 32 0 66 66 NNW 18 30 30.28 1025 10 16.0934 0 0
7:35 pm 19:35 Partly Cloudy 43 6 32 0 66 66 NNW 15 24 30.28 1025 10 16.0934 0 0
7:55 pm 19:55 Clear 41 5 32 0 70 70 NNW 18 30 30.27 1025 10 16.0934 0 0
8:15 pm 20:15 Clear 43 6 32 0 66 66 NNW 10 17 30.27 1025 10 16.0934 0 0
8:35 pm 20:35 Clear 41 5 32 0 70 70 NNW 14 22 30.28 1026 10 16.0934 0 0
8:55 pm 20:55 Clear 41 5 32 0 70 70 N 13 20 30.28 1026 10 16.0934 0 0
9:15 pm 21:15 Clear 41 5 32 0 70 70 NNW 14 22 30.29 1026 10 16.0934 0 0
9:35 pm 21:35 Clear 41 5 32 0 70 70 N 13 20 30.29 1026 10 16.0934 0 0
9:55 pm 21:55 Clear 41 5 32 0 70 70 N 16 26 30.3 1026 10 16.0934 0 0
10:15 pm 22:15 Clear 41 5 32 0 70 70 NNW 23 37 30.31 1027 10 16.0934 0 0
10:35 pm 22:35 Clear 41 5 32 0 70 70 N 17 28 30.31 1027 10 16.0934 0 0
10:55 pm 22:55 Clear 41 5 32 0 70 70 NNW 18 30 30.3 1026 10 16.0934 0 0
11:15 pm 23:15 Clear 41 5 32 0 70 70 N 22 35 30.3 1026 10 16.0934 0 0
11:35 pm 23:35 Clear 41 5 32 0 70 70 N 17 28 30.3 1026 10 16.0934 0 0
11:55 pm 23:55 Clear 41 5 32 0 70 70 NNW 13 20 30.3 1026 10 16.0934 0 0

Powered by AerisWeather